QPF
0.00 0.00 0.00 0.00 0.00 0.00 0.00 0.00 0.00 0.00 0.00 0.00 0.00 0.00 0.00 0.00 0.00 0.00 0.00 0.00 0.00 0.00 0.00 0.00 0.00 0.00 0.00 0.00 0.00 0.00 0.00 0.00 0.00 0.00 0.00 0.00 0.00 0.00 0.00 0.00 0.00 0.00 0.00 0.00 0.00 0.00 0.00
0.00 0.00 0.00 0.00 0.00 0.00 0.00 0.00 0.00 0.00 0.00 0.00 0.00 0.00 0.00 0.00 0.00 0.00 0.00 0.00 0.00 0.00 0.00 0.00 0.00 0.00 0.00 0.00 0.00 0.00 0.00 0.00 0.00 0.00 0.00 0.00 0.00 0.00 0.00 0.00 0.00 0.00 0.00 0.00 0.00 0.00 0.00
0.00 0.00 0.00 0.00 0.00 0.00 0.00 0.00 0.00 0.00 0.00 0.00 0.00 0.00 0.00 0.00 0.00 0.00 0.00 0.00 0.00 0.00 0.00 0.00 0.00 0.00 0.00 0.00 0.00 0.00 0.00 0.00 0.00 0.00 0.00 0.00 0.00 0.00 0.00 0.00 0.00 0.00 0.00 0.00 0.00 0.00 0.00
0.00 0.00 0.00 0.00 0.00 0.00 0.00 0.00 0.00 0.00 0.00 0.00 0.00 0.00 0.00 0.00 0.00 0.00 0.00 0.00 0.00 0.00 0.00 0.00 0.00 0.00 0.00 0.00 0.00 0.00 0.00 0.00 0.00 0.00 0.00 0.00 0.00 0.00 0.00 0.00 0.00 0.00 0.00 0.00 0.00 0.00 0.00
0.00 0.00 0.00 0.00 0.00 0.00 0.00 0.00 0.00 0.00 0.00 0.00 0.00 0.00 0.00 0.00 0.00 0.00 0.00 0.00 0.00 0.00 0.00 0.00 0.00 0.00 0.00 0.00 0.00 0.00 0.00 0.00 0.00 0.00 0.00 0.00 0.00 0.00 0.00 0.00 0.00 0.00 0.00 0.00 0.00 0.00 0.00
0.00 0.00 0.00 0.00 0.00 0.00 0.00 0.00 0.00 0.00 0.00 0.00 0.00 0.00 0.00 0.00 0.00 0.00 0.00 0.00 0.00 0.00 0.00 0.00 0.00 0.00 0.00 0.00 0.00 0.00 0.00 0.00 0.00 0.00 0.00 0.00 0.00 0.00 0.00 0.00 0.00 0.00 0.00 0.00 0.00 0.00 0.00
0.00 0.00 0.00 0.00 0.00 0.00 0.00 0.00 0.00 0.00 0.00 0.00 0.00 0.00 0.00 0.00 0.00 0.00 0.00 0.00 0.00 0.00 0.00 0.00 0.00 0.00 0.00 0.00 0.00 0.00 0.00 0.00 0.00 0.00 0.00 0.00 0.00 0.00 0.00 0.00 0.00 0.00 0.00 0.00 0.00 0.00 0.00
0.00 0.00 0.00 0.00 0.00 0.00 0.00 0.00 0.00 0.00 0.00 0.00 0.00 0.00 0.00 0.00 0.00 0.00 0.00 0.00 0.00 0.00 0.00 0.00 0.00 0.00 0.00 0.00 0.00 0.00 0.00 0.00 0.00 0.00 0.00 0.00 0.00 0.00 0.00 0.00 0.00 0.00 0.00 0.00 0.00 0.00 0.00
0.00 0.00 0.00 0.00 0.00 0.00 0.00 0.00 0.00 0.00 0.00 0.00 0.00 0.00 0.00 0.00 0.00 0.00 0.00 0.00 0.00 0.00 0.00 0.00 0.00 0.00 0.00 0.00 0.00 0.00 0.00 0.00 0.00 0.00 0.00 0.00 0.00 0.00 0.00 0.00 0.00 0.00 0.00 0.00 0.00 0.00 0.00
0.00 0.00 0.00 0.00 0.00 0.00 0.00 0.00 0.00 0.00 0.00 0.00 0.00 0.00 0.00 0.00 0.00 0.00 0.00 0.00 0.00 0.00 0.00 0.00 0.00 0.00 0.00 0.00 0.00 0.00 0.00 0.00 0.00 0.00 0.00 0.00 0.00 0.00 0.00 0.00 0.00 0.00 0.00 0.00 0.00 0.00 0.00
0.00 0.00 0.00 0.00 0.00 0.00 0.00 0.00 0.00 0.00 0.00 0.00 0.00 0.00 0.00 0.00 0.00 0.00 0.00 0.00 0.00 0.00 0.00 0.00 0.00 0.00 0.00 0.00 0.00 0.00 0.00 0.00 0.00 0.00 0.00 0.00 0.00 0.00 0.00 0.00 0.00 0.00 0.00 0.00 0.00 0.00 0.00
0.00 0.00 0.00 0.00 0.00 0.00 0.00 0.00 0.00 0.00 0.00 0.00 0.00 0.00 0.00 0.00 0.00 0.00 0.00 0.00 0.00 0.00 0.00 0.00 0.00 0.00 0.00 0.00 0.00 0.00 0.00 0.00 0.00 0.00 0.00 0.00 0.00 0.00 0.00 0.00 0.00 0.00 0.00 0.00 0.00 0.00 0.00
0.00 0.00 0.00 0.00 0.00 0.00 0.00 0.00 0.00 0.00 0.00 0.00 0.00 0.00 0.00 0.00 0.00 0.00 0.00 0.00 0.00 0.00 0.00 0.00 0.00 0.00 0.00 0.00 0.00 0.00 0.00 0.00 0.00 0.00 0.00 0.00 0.00 0.00 0.00 0.00 0.00 0.00 0.00 0.00 0.00 0.00 0.00
0.00 0.00 0.00 0.00 0.00 0.00 0.00 0.00 0.00 0.00 0.00 0.00 0.00 0.00 0.00 0.00 0.00 0.00 0.00 0.00 0.00 0.00 0.00 0.00 0.00 0.00 0.00 0.00 0.00 0.00 0.00 0.00 0.00 0.00 0.00 0.00 0.00 0.00 0.00 0.00 0.00 0.00 0.00 0.00 0.00 0.00 0.00
0.00 0.00 0.00 0.00 0.00 0.00 0.00 0.00 0.00 0.00 0.00 0.00 0.00 0.00 0.00 0.00 0.00 0.00 0.00 0.00 0.00 0.00 0.00 0.00 0.00 0.00 0.00 0.00 0.00 0.00 0.00 0.00 0.00 0.00 0.00 0.00 0.00 0.00 0.00 0.00 0.00 0.00 0.00 0.00 0.00 0.00 0.00
0.00 0.00 0.00 0.00 0.00 0.00 0.00 0.00 0.00 0.00 0.00 0.00 0.00 0.00 0.00 0.00 0.00 0.00 0.00 0.00 0.00 0.00 0.00 0.00 0.00 0.00 0.00 0.00 0.00 0.00 0.00 0.00 0.00 0.00 0.00 0.00 0.00 0.00 0.00 0.00 0.00 0.00 0.00 0.00 0.00 0.00 0.00
0.00 0.00 0.00 0.00 0.00 0.00 0.00 0.00 0.00 0.00 0.00 0.00 0.00 0.00 0.00 0.00 0.00 0.00 0.00 0.00 0.00 0.00 0.00 0.00 0.00 0.00 0.00 0.00 0.00 0.00 0.00 0.00 0.00 0.00 0.00 0.00 0.00 0.00 0.00 0.00 0.00 0.00 0.00 0.00 0.00 0.00 0.00
0.00 0.00 0.00 0.00 0.00 0.00 0.00 0.00 0.00 0.00 0.00 0.00 0.00 0.00 0.00 0.00 0.00 0.00 0.00 0.00 0.00 0.00 0.00 0.00 0.00 0.00 0.00 0.00 0.00 0.00 0.00 0.00 0.00 0.00 0.00 0.00 0.00 0.00 0.00 0.00 0.00 0.00 0.00 0.00 0.00 0.00 0.00
0.00 0.00 0.00 0.00 0.00 0.00 0.00 0.00 0.00 0.00 0.00 0.00 0.00 0.00 0.00 0.00 0.00 0.00 0.00 0.00 0.00 0.00 0.00 0.00 0.00 0.00 0.00 0.00 0.00 0.00 0.00 0.00 0.00 0.00 0.00 0.00 0.00 0.00 0.00 0.00 0.00 0.00 0.00 0.00 0.00 0.00 0.00
0.00 0.00 0.00 0.00 0.00 0.00 0.00 0.00 0.00 0.00 0.00 0.00 0.00 0.00 0.00 0.00 0.00 0.00 0.00 0.00 0.00 0.00 0.00 0.00 0.00 0.00 0.00 0.00 0.00 0.00 0.00 0.00 0.00 0.00 0.00 0.00 0.00 0.00 0.00 0.00 0.00 0.00 0.00 0.00 0.00 0.00 0.00
0.00 0.00 0.00 0.00 0.00 0.00 0.00 0.00 0.00 0.00 0.00 0.00 0.00 0.00 0.00 0.00 0.00 0.00 0.00 0.00 0.00 0.00 0.00 0.00 0.00 0.00 0.00 0.00 0.00 0.00 0.00 0.00 0.00 0.00 0.00 0.00 0.00 0.00 0.00 0.00 0.00 0.00 0.00 0.00 0.00 0.00 0.00
0.00 0.00 0.00 0.00 0.00 0.00 0.00 0.00 0.00 0.00 0.00 0.00 0.00 0.00 0.00 0.00 0.00 0.00 0.00 0.00 0.00 0.00 0.00 0.00 0.00 0.00 0.00 0.00 0.00 0.00 0.00 0.00 0.00 0.00 0.00 0.00 0.00 0.00 0.00 0.00 0.00 0.00 0.00 0.00 0.00 0.00 0.00
0.00 0.00 0.00 0.00 0.00 0.00 0.00 0.00 0.00 0.00 0.00 0.00 0.00 0.00 0.00 0.00 0.00 0.00 0.00 0.00 0.00 0.00 0.00 0.00 0.00 0.00 0.00 0.00 0.00 0.00 0.00 0.00 0.00 0.00 0.00 0.00 0.00 0.00 0.00 0.00 0.00 0.00 0.00 0.00 0.00 0.00 0.00
0.00 0.00 0.00 0.00 0.00 0.00 0.00 0.00 0.00 0.00 0.00 0.00 0.00 0.00 0.00 0.00 0.00 0.00 0.00 0.00 0.00 0.00 0.00 0.00 0.00 0.00 0.00 0.00 0.00 0.00 0.00 0.00 0.00 0.00 0.00 0.00 0.00 0.00 0.00 0.00 0.00 0.00 0.00 0.00 0.00 0.00 0.00
0.00 0.00 0.00 0.00 0.00 0.00 0.00 0.00 0.00 0.00 0.00 0.00 0.00 0.00 0.00 0.00 0.00 0.00 0.00 0.00 0.00 0.00 0.00 0.00 0.00 0.00 0.00 0.00 0.00 0.00 0.00 0.00 0.00 0.00 0.00 0.00 0.00 0.00 0.00 0.00 0.00 0.00 0.00 0.00 0.00 0.00 0.00
0.00 0.00 0.00 0.00 0.00 0.00 0.00 0.00 0.00 0.00 0.00 0.00 0.00 0.00 0.00 0.00 0.00 0.00 0.00 0.00 0.00 0.00 0.00 0.00 0.00 0.00 0.00 0.00 0.00 0.00 0.00 0.00 0.00 0.00 0.00 0.00 0.00 0.00 0.00 0.00 0.00 0.00 0.00 0.00 0.00 0.00 0.00
0.00 0.00 0.00 0.00 0.00 0.00 0.00 0.00 0.00 0.00 0.00 0.00 0.00 0.00 0.00 0.00 0.00 0.00 0.00 0.00 0.00 0.00 0.00 0.00 0.00 0.00 0.00 0.00 0.00 0.00 0.00 0.00 0.00 0.00 0.00 0.00 0.00 0.00 0.00 0.00 0.00 0.00 0.00 0.00 0.00 0.00 0.00
0.00 0.00 0.00 0.00 0.00 0.00 0.00 0.00 0.00 0.00 0.00 0.00 0.00 0.00 0.00 0.00 0.00 0.00 0.00 0.00 0.00 0.00 0.00 0.00 0.00 0.00 0.00 0.00 0.00 0.00 0.00 0.00 0.00 0.00 0.00 0.00 0.00 0.00 0.00 0.00 0.00 0.00 0.00 0.00 0.00 0.00 0.00
0.00 0.00 0.00 0.00 0.00 0.00 0.00 0.00 0.00 0.00 0.00 0.00 0.00 0.00 0.00 0.00 0.00 0.00 0.00 0.00 0.00 0.00 0.00 0.00 0.00 0.00 0.00 0.00 0.00 0.00 0.00 0.00 0.00 0.00 0.00 0.00 0.00 0.00 0.00 0.00 0.00 0.00 0.00 0.00 0.00 0.00 0.00
MSLP
1016.94 1016.81 1016.78 1016.60 1016.35 1016.20 1015.89 1015.78 1015.58 1015.23 1014.86 1014.55 1014.26 1014.07 1013.89 1013.66 1013.50 1013.34 1013.05 1012.99 1012.96 1012.79 1012.76 1012.71 1012.88 1012.97 1013.07 1013.03 1012.34 1011.85 1011.84 1011.93 1012.36 1012.55 1012.62 1012.95 1013.24 1013.58 1013.98 1014.40 1014.53 1014.57 1014.82 1014.96 1014.94 1015.27 1015.31
1016.77 1016.70 1016.65 1016.67 1016.32 1016.20 1015.90 1015.62 1015.51 1015.22 1014.99 1014.63 1014.31 1014.06 1013.91 1013.69 1013.43 1013.32 1013.11 1012.82 1012.71 1012.83 1012.68 1012.64 1012.50 1012.81 1013.15 1012.76 1011.91 1011.85 1011.88 1012.24 1012.48 1012.49 1012.74 1012.79 1013.01 1013.17 1013.87 1014.32 1014.52 1014.48 1014.89 1015.06 1015.14 1015.43 1015.56
1016.78 1016.66 1016.44 1016.49 1016.38 1016.10 1015.79 1015.56 1015.38 1015.21 1014.89 1014.66 1014.33 1014.08 1013.86 1013.59 1013.41 1013.35 1013.09 1012.78 1012.64 1012.55 1012.69 1012.69 1012.56 1012.62 1012.79 1012.14 1011.71 1011.87 1012.01 1012.27 1012.43 1012.32 1012.53 1012.58 1012.84 1013.10 1013.79 1014.50 1014.52 1014.73 1015.19 1015.22 1015.49 1015.54 1015.78
1016.83 1016.70 1016.49 1016.34 1016.26 1016.11 1015.79 1015.42 1015.26 1015.05 1014.79 1014.59 1014.32 1013.95 1013.66 1013.53 1013.28 1013.11 1013.08 1012.87 1012.60 1012.56 1012.48 1012.65 1012.73 1012.68 1012.40 1011.86 1012.00 1012.27 1012.16 1012.37 1012.44 1012.16 1012.39 1012.68 1012.70 1013.30 1013.99 1014.59 1014.80 1015.26 1015.48 1015.60 1015.69 1015.76 1015.99
1016.86 1016.56 1016.38 1016.21 1016.25 1015.98 1015.72 1015.48 1015.29 1014.96 1014.68 1014.47 1014.22 1013.93 1013.63 1013.30 1013.20 1013.06 1012.90 1012.69 1012.51 1012.51 1012.48 1012.55 1012.87 1012.75 1012.20 1011.88 1012.08 1012.20 1012.08 1012.18 1012.28 1012.58 1012.74 1012.80 1013.11 1014.07 1014.53 1015.03 1015.60 1015.91 1015.89 1015.93 1015.78 1015.91 1016.13
1016.73 1016.62 1016.34 1016.20 1016.08 1015.90 1015.63 1015.46 1015.25 1014.90 1014.57 1014.36 1014.17 1013.90 1013.56 1013.25 1013.01 1012.92 1012.81 1012.64 1012.60 1012.60 1012.80 1012.76 1012.74 1013.12 1012.22 1011.82 1011.88 1012.04 1012.16 1012.17 1012.40 1012.87 1013.12 1013.37 1014.22 1014.72 1015.23 1015.47 1015.60 1015.79 1016.05 1015.97 1016.00 1016.24 1016.37
1016.68 1016.56 1016.32 1016.08 1015.91 1015.74 1015.58 1015.34 1015.10 1014.87 1014.51 1014.22 1014.05 1013.78 1013.49 1013.19 1012.79 1012.74 1013.01 1013.05 1013.18 1013.13 1012.76 1011.93 1011.94 1011.87 1011.67 1011.71 1011.74 1012.07 1012.26 1012.28 1012.43 1013.05 1013.64 1014.02 1014.71 1014.80 1014.64 1014.94 1015.10 1015.45 1015.75 1015.92 1016.11 1016.33 1016.58
1016.53 1016.42 1016.25 1015.98 1015.80 1015.60 1015.40 1015.15 1015.02 1014.72 1014.37 1014.09 1013.90 1013.66 1013.39 1013.07 1012.75 1012.63 1012.93 1012.87 1012.12 1012.06 1012.04 1011.79 1011.66 1011.70 1011.57 1011.47 1011.87 1012.18 1012.30 1012.53 1012.89 1013.53 1014.07 1014.73 1014.58 1014.47 1014.66 1015.06 1015.37 1015.71 1016.02 1016.37 1016.57 1016.76 1017.03
1016.38 1016.19 1015.93 1015.83 1015.64 1015.49 1015.27 1015.13 1014.85 1014.45 1014.22 1014.00 1013.77 1013.46 1013.19 1012.96 1012.63 1012.89 1012.73 1012.23 1011.93 1011.88 1012.16 1011.79 1011.45 1011.44 1011.61 1011.75 1011.68 1011.92 1012.39 1012.55 1013.15 1013.88 1014.16 1014.43 1014.40 1014.46 1014.81 1015.48 1015.86 1016.15 1016.45 1016.81 1017.18 1017.58 1018.11
1016.48 1016.25 1015.93 1015.65 1015.62 1015.44 1015.18 1014.99 1014.75 1014.40 1014.06 1013.82 1013.59 1013.25 1012.99 1012.82 1013.08 1012.71 1012.49 1011.99 1011.95 1012.00 1012.22 1011.68 1011.40 1011.16 1011.35 1011.62 1011.94 1011.98 1012.24 1012.62 1013.23 1013.70 1014.49 1014.64 1014.57 1014.79 1015.22 1015.73 1016.09 1016.75 1016.78 1017.12 1017.86 1018.67 1019.45
1016.46 1016.25 1015.97 1015.78 1015.54 1015.35 1015.10 1014.75 1014.51 1014.27 1013.96 1013.73 1013.35 1013.05 1012.83 1012.68 1013.04 1012.71 1012.19 1011.98 1011.93 1012.03 1012.22 1011.42 1011.35 1011.24 1011.36 1011.90 1012.08 1012.26 1012.36 1012.56 1013.25 1013.93 1014.62 1014.95 1015.11 1015.36 1015.89 1016.17 1016.47 1017.29 1017.51 1018.20 1019.10 1019.91 1020.31
1016.65 1016.34 1016.08 1015.81 1015.54 1015.23 1014.93 1014.67 1014.30 1014.05 1013.74 1013.39 1013.15 1012.93 1012.70 1012.44 1012.84 1012.23 1012.06 1011.90 1012.11 1012.85 1011.76 1011.42 1011.31 1011.41 1011.73 1011.94 1012.22 1012.57 1012.66 1012.82 1013.44 1014.24 1014.88 1015.58 1015.82 1016.10 1016.55 1017.05 1017.24 1017.88 1018.47 1019.50 1020.45 1020.97 1021.45
1016.71 1016.40 1016.15 1015.78 1015.49 1015.23 1014.81 1014.41 1013.91 1013.51 1013.59 1013.17 1012.87 1012.61 1012.56 1012.41 1012.24 1011.90 1012.12 1012.16 1012.83 1012.26 1011.03 1011.34 1011.39 1011.53 1011.78 1012.27 1012.68 1012.85 1013.21 1013.59 1013.92 1014.85 1015.52 1016.24 1016.62 1016.90 1016.97 1017.72 1018.19 1018.36 1019.16 1020.75 1021.64 1022.11 1021.77
1016.62 1016.39 1016.15 1015.83 1015.42 1015.19 1014.73 1014.41 1014.01 1013.71 1013.32 1012.82 1012.44 1012.33 1012.03 1011.87 1011.77 1012.10 1012.23 1012.68 1012.55 1011.07 1010.86 1010.80 1011.10 1011.67 1011.99 1012.23 1012.89 1013.22 1013.62 1014.13 1014.38 1014.69 1015.71 1016.47 1017.44 1017.48 1017.75 1017.99 1017.99 1018.85 1019.23 1020.26 1021.27 1022.48 1022.27
1016.70 1016.41 1016.11 1015.86 1015.42 1014.86 1014.45 1013.97 1013.46 1013.06 1012.67 1012.28 1012.04 1012.13 1012.06 1011.80 1011.81 1012.03 1012.52 1012.78 1011.78 1011.00 1010.52 1010.75 1011.46 1011.78 1012.08 1012.37 1012.85 1013.40 1013.89 1014.24 1014.17 1014.58 1015.36 1016.36 1017.50 1018.18 1018.36 1018.56 1018.87 1019.53 1019.89 1020.23 1021.67 1023.50 1022.87
1016.78 1016.41 1016.13 1015.78 1015.36 1014.83 1014.22 1013.66 1013.13 1012.60 1012.22 1011.96 1012.04 1012.09 1011.79 1011.90 1011.98 1011.90 1012.58 1012.46 1011.61 1010.95 1010.85 1010.83 1011.02 1011.17 1012.01 1012.64 1013.22 1013.61 1014.00 1013.94 1014.34 1014.71 1014.98 1015.76 1017.35 1018.65 1019.02 1019.19 1019.57 1019.61 1020.10 1020.95 1021.96 1023.06 1022.95
1016.89 1016.49 1016.17 1015.84 1015.41 1014.88 1014.23 1013.52 1012.79 1012.30 1011.85 1011.86 1012.08 1011.90 1011.85 1011.93 1012.26 1012.05 1012.44 1012.22 1011.56 1011.32 1011.32 1011.11 1010.94 1011.46 1011.86 1012.38 1012.95 1013.53 1013.92 1014.30 1014.46 1015.14 1015.33 1016.02 1016.96 1019.47 1019.58 1019.98 1020.25 1020.78 1020.86 1021.57 1021.90 1022.60 1022.96
1016.90 1016.59 1016.29 1015.94 1015.44 1014.85 1014.26 1013.73 1013.10 1012.26 1011.86 1012.04 1011.98 1012.13 1012.05 1012.35 1012.82 1012.74 1012.46 1011.98 1011.79 1011.68 1011.36 1011.15 1011.26 1011.42 1011.70 1012.22 1012.88 1013.51 1013.78 1014.18 1014.47 1014.85 1015.82 1016.39 1017.24 1019.29 1020.00 1020.89 1021.27 1021.09 1021.18 1021.42 1022.28 1023.68 1024.18
1017.11 1016.78 1016.45 1016.01 1015.49 1014.98 1014.34 1013.78 1013.19 1012.36 1011.82 1012.18 1011.96 1012.00 1012.15 1012.13 1012.98 1012.86 1012.59 1012.42 1012.06 1011.81 1011.62 1011.68 1011.63 1011.64 1011.86 1012.32 1013.13 1013.62 1014.19 1014.77 1014.87 1015.15 1015.59 1016.37 1017.36 1019.25 1020.38 1021.54 1021.65 1021.75 1021.89 1022.39 1022.68 1023.30 1024.33
1017.36 1017.01 1016.66 1016.23 1015.70 1015.11 1014.30 1013.64 1012.87 1012.24 1011.78 1012.25 1012.18 1012.42 1012.51 1012.45 1012.52 1012.57 1012.68 1012.43 1012.25 1012.23 1011.92 1011.93 1011.95 1012.07 1012.44 1012.89 1013.34 1014.12 1014.81 1015.20 1015.28 1015.57 1015.92 1016.11 1017.28 1018.20 1019.28 1019.82 1020.54 1021.99 1022.36 1022.98 1023.32 1024.41 1024.32
1017.55 1017.23 1016.83 1016.28 1015.89 1015.39 1014.66 1013.79 1013.01 1012.36 1011.82 1012.27 1012.51 1012.82 1012.95 1012.79 1012.58 1012.63 1012.66 1012.35 1012.29 1012.35 1012.40 1012.46 1012.59 1012.57 1012.79 1013.55 1014.06 1014.59 1015.22 1015.77 1016.06 1016.13 1016.53 1017.00 1017.94 1018.92 1019.73 1020.38 1021.06 1021.81 1022.70 1023.44 1023.93 1023.71 1024.18
1017.89 1017.51 1017.02 1016.48 1015.96 1015.30 1014.56 1014.05 1013.31 1012.62 1012.13 1012.64 1012.85 1013.12 1013.15 1012.96 1012.85 1012.91 1012.70 1012.43 1012.34 1012.54 1012.76 1012.94 1013.04 1013.11 1013.41 1013.95 1014.10 1014.75 1015.21 1015.78 1015.93 1016.96 1017.40 1018.09 1019.24 1020.08 1021.07 1021.63 1022.12 1022.91 1023.08 1023.66 1024.35 1024.51 1024.72
1018.18 1017.63 1017.12 1016.60 1016.10 1015.57 1014.97 1014.25 1013.51 1012.75 1012.19 1012.49 1012.96 1012.88 1013.00 1013.17 1013.21 1013.33 1012.76 1012.37 1012.66 1012.86 1013.45 1013.65 1013.57 1013.95 1014.58 1014.96 1015.14 1015.65 1015.85 1016.05 1016.30 1017.06 1018.33 1019.26 1020.14 1021.44 1022.19 1022.62 1023.09 1023.46 1021.88 1022.74 1023.25 1023.80 1023.94
1018.45 1017.93 1017.34 1016.82 1016.27 1015.74 1015.25 1014.67 1013.97 1013.35 1013.19 1013.30 1013.71 1013.46 1013.62 1013.81 1013.81 1013.48 1013.11 1012.96 1013.26 1013.55 1013.91 1014.38 1014.41 1014.79 1015.80 1015.77 1015.89 1016.22 1016.75 1017.36 1017.75 1018.46 1018.73 1019.88 1020.97 1022.11 1023.32 1023.52 1023.01 1021.12 1021.27 1021.77 1022.43 1022.94 1023.64
1018.95 1018.41 1017.89 1017.30 1016.80 1016.33 1015.81 1015.14 1014.47 1013.85 1013.54 1013.85 1014.35 1014.31 1014.28 1014.19 1014.10 1013.86 1013.81 1013.92 1014.22 1014.54 1014.99 1015.43 1015.86 1016.22 1016.09 1016.35 1016.98 1017.72 1018.27 1018.54 1019.36 1019.88 1020.05 1020.27 1021.09 1022.94 1023.90 1023.99 1021.66 1020.98 1021.12 1021.56 1021.76 1022.00 1022.60
1019.38 1018.94 1018.44 1017.89 1017.28 1016.72 1016.13 1015.57 1015.03 1014.49 1014.06 1014.26 1014.93 1014.94 1014.66 1014.84 1014.80 1014.40 1014.52 1014.65 1014.99 1015.41 1016.05 1016.54 1016.80 1016.76 1016.76 1017.16 1017.81 1018.70 1018.86 1019.13 1020.40 1020.90 1021.08 1021.32 1021.63 1022.62 1024.24 1024.07 1022.00 1020.34 1020.10 1020.50 1021.11 1022.10 1022.17
1019.60 1019.07 1018.61 1018.20 1017.74 1017.19 1016.70 1016.22 1015.68 1015.21 1014.67 1014.66 1015.18 1015.21 1014.96 1015.17 1015.56 1015.58 1015.45 1015.45 1015.30 1015.87 1016.53 1017.10 1017.37 1017.61 1017.63 1018.11 1019.04 1019.51 1019.76 1019.74 1020.59 1021.37 1022.16 1022.67 1023.24 1023.94 1024.37 1023.80 1021.84 1020.45 1020.58 1021.16 1022.18 1022.69 1022.56
1019.90 1019.42 1018.94 1018.42 1017.90 1017.37 1016.86 1016.40 1015.92 1015.30 1014.81 1014.80 1015.45 1015.37 1015.29 1015.55 1016.41 1016.40 1016.38 1016.31 1016.34 1016.54 1016.91 1017.62 1018.00 1018.37 1018.92 1019.26 1019.84 1019.88 1020.65 1020.97 1021.41 1021.46 1021.72 1022.03 1023.13 1024.04 1024.51 1024.36 1022.61 1021.03 1021.65 1022.07 1022.34 1022.60 1023.16
1020.15 1019.72 1019.21 1018.80 1018.35 1017.83 1017.25 1016.74 1016.39 1015.87 1015.29 1014.84 1015.42 1015.47 1015.34 1015.63 1017.15 1017.26 1017.47 1017.50 1017.44 1017.29 1017.23 1017.66 1017.90 1017.77 1018.06 1018.93 1020.24 1020.93 1021.74 1022.51 1022.26 1022.53 1022.17 1022.34 1021.66 1022.23 1022.42 1022.22 1021.95 1022.28 1022.43 1022.79 1022.87 1023.29 1024.24
Thickness
5625 5625 5623 5624 5625 5624 5626 5625 5626 5629 5632 5634 5637 5638 5639 5641 5644 5646 5650 5652 5654 5657 5658 5661 5661 5662 5663 5662 5666 5676 5676 5676 5673 5670 5668 5665 5660 5655 5650 5648 5649 5650 5650 5650 5650 5646 5647
5619 5619 5618 5616 5617 5618 5619 5620 5620 5622 5623 5627 5629 5631 5632 5634 5637 5640 5643 5647 5650 5650 5653 5655 5659 5658 5657 5654 5670 5671 5672 5669 5667 5666 5663 5661 5657 5657 5649 5647 5646 5648 5644 5644 5644 5642 5641
5610 5611 5613 5610 5608 5609 5612 5613 5614 5614 5616 5618 5621 5623 5625 5628 5630 5632 5636 5640 5643 5646 5647 5649 5651 5654 5653 5655 5665 5666 5665 5663 5663 5663 5658 5659 5657 5654 5647 5639 5643 5640 5638 5639 5636 5637 5636
5602 5602 5602 5601 5600 5599 5600 5604 5606 5607 5608 5609 5612 5615 5618 5620 5624 5626 5628 5631 5636 5638 5641 5641 5642 5645 5644 5656 5657 5656 5658 5656 5656 5659 5657 5654 5654 5646 5642 5635 5631 5629 5627 5627 5631 5630 5631
5593 5594 5593 5592 5590 5590 5591 5592 5595 5598 5600 5601 5603 5606 5609 5612 5614 5618 5621 5624 5628 5631 5633 5635 5635 5637 5638 5650 5647 5649 5651 5649 5651 5649 5648 5648 5644 5632 5631 5622 5617 5613 5618 5616 5628 5625 5626
5585 5583 5583 5582 5581 5581 5584 5584 5587 5589 5591 5592 5593 5595 5599 5603 5606 5609 5612 5616 5618 5621 5623 5625 5628 5626 5635 5639 5642 5642 5643 5644 5641 5638 5636 5633 5621 5617 5612 5611 5605 5613 5610 5612 5619 5620 5620
5575 5574 5574 5575 5575 5574 5575 5576 5577 5578 5580 5582 5583 5586 5589 5593 5598 5600 5602 5603 5605 5606 5613 5621 5625 5628 5631 5635 5637 5634 5635 5636 5635 5630 5619 5619 5612 5609 5613 5611 5617 5610 5613 5616 5615 5613 5616
5567 5566 5565 5566 5564 5564 5565 5566 5565 5567 5569 5572 5573 5576 5579 5583 5588 5592 5593 5597 5607 5611 5608 5613 5618 5621 5626 5629 5625 5626 5629 5625 5622 5612 5610 5606 5604 5610 5610 5605 5609 5608 5608 5607 5606 5604 5607
5558 5556 5556 5554 5553 5552 5552 5552 5553 5556 5558 5561 5563 5566 5569 5573 5579 5580 5585 5594 5598 5601 5596 5605 5610 5613 5616 5618 5620 5618 5619 5616 5612 5602 5602 5600 5609 5604 5605 5597 5598 5597 5596 5597 5603 5594 5585
5542 5540 5540 5540 5537 5537 5539 5539 5540 5543 5547 5549 5552 5556 5561 5565 5566 5572 5578 5586 5589 5591 5572 5596 5600 5607 5610 5611 5610 5614 5613 5611 5605 5599 5593 5599 5601 5600 5599 5596 5593 5589 5594 5595 5590 5583 5579
5525 5523 5523 5522 5522 5523 5524 5527 5529 5531 5534 5537 5542 5547 5552 5557 5558 5565 5575 5577 5580 5582 5544 5593 5593 5603 5603 5601 5600 5603 5604 5605 5595 5593 5592 5591 5590 5592 5591 5593 5589 5588 5580 5577 5569 5550 5562
5509 5508 5507 5507 5509 5511 5513 5516 5519 5522 5524 5529 5533 5538 5546 5551 5554 5560 5564 5568 5570 5556 5544 5581 5586 5588 5591 5593 5592 5590 5593 5594 5589 5585 5577 5575 5571 5575 5576 5564 5572 5558 5563 5551 5535 5538 5524
5497 5495 5494 5495 5497 5499 5503 5507 5511 5518 5515 5522 5527 5533 5537 5542 5550 5554 5554 5558 5546 5538 5582 5576 5578 5581 5585 5579 5580 5582 5580 5574 5570 5571 5570 5568 5564 5559 5564 5561 5563 5563 5562 5537 5538 5521 5554
5488 5485 5485 5486 5488 5489 5493 5497 5501 5505 5511 5517 5523 5527 5533 5538 5543 5544 5546 5546 5538 5563 5568 5576 5576 5573 5574 5574 5573 5573 5570 5569 5565 5568 5546 5560 5561 5554 5549 5557 5559 5554 5553 5546 5548 5544 5553
5479 5478 5479 5479 5481 5485 5488 5493 5499 5505 5509 5514 5518 5520 5524 5530 5534 5536 5534 5522 5538 5556 5572 5568 5569 5567 5567 5568 5566 5568 5561 5556 5563 5558 5570 5555 5560 5535 5536 5538 5542 5546 5543 5534 5484 5463 5501
5474 5474 5473 5474 5476 5479 5484 5490 5495 5501 5506 5509 5510 5514 5520 5519 5523 5528 5523 5530 5542 5555 5558 5562 5564 5566 5557 5556 5560 5556 5549 5559 5558 5554 5552 5558 5542 5527 5526 5529 5527 5531 5526 5532 5490 5499 5514
5469 5469 5469 5469 5471 5474 5479 5486 5492 5496 5500 5503 5504 5512 5511 5512 5512 5518 5508 5521 5541 5539 5544 5554 5559 5555 5558 5552 5549 5550 5557 5551 5550 5541 5544 5535 5534 5517 5522 5520 5518 5511 5496 5501 5504 5490 5502
5467 5466 5464 5464 5466 5469 5474 5478 5483 5490 5493 5495 5498 5512 5503 5503 5503 5497 5513 5526 5529 5531 5537 5545 5548 5551 5548 5542 5544 5547 5551 5550 5539 5537 5540 5528 5510 5494 5519 5479 5472 5494 5506 5506 5515 5487 5439
5464 5462 5461 5459 5461 5464 5468 5473 5478 5485 5490 5488 5499 5500 5498 5500 5489 5496 5507 5516 5520 5526 5532 5533 5537 5541 5543 5541 5544 5539 5531 5527 5529 5530 5522 5513 5502 5490 5514 5488 5482 5484 5482 5464 5459 5454 5447
5458 5455 5454 5454 5456 5459 5463 5468 5474 5481 5486 5485 5491 5498 5493 5493 5491 5504 5507 5513 5517 5515 5522 5524 5529 5531 5533 5533 5525 5517 5516 5517 5521 5521 5522 5521 5504 5505 5521 5523 5489 5473 5479 5450 5456 5453 5465
5455 5452 5452 5453 5453 5455 5459 5463 5468 5475 5481 5480 5483 5489 5486 5487 5499 5499 5500 5509 5510 5512 5512 5513 5517 5521 5525 5515 5518 5512 5505 5503 5504 5511 5496 5502 5497 5496 5486 5478 5472 5467 5460 5468 5441 5448 5491
5451 5451 5451 5451 5453 5456 5459 5460 5465 5470 5475 5475 5480 5480 5478 5482 5487 5490 5497 5504 5507 5504 5504 5508 5510 5510 5510 5512 5521 5508 5501 5497 5504 5488 5485 5471 5464 5446 5429 5448 5422 5435 5424 5446 5451 5414 5404
5450 5449 5450 5451 5453 5454 5456 5459 5464 5470 5474 5476 5471 5473 5479 5480 5481 5483 5494 5505 5499 5494 5490 5487 5497 5495 5498 5488 5479 5471 5469 5470 5480 5479 5461 5447 5439 5431 5434 5431 5409 5422 5443 5440 5446 5420 5429
5447 5447 5449 5450 5452 5453 5455 5458 5461 5465 5467 5467 5462 5469 5467 5475 5469 5477 5483 5486 5485 5484 5486 5473 5478 5487 5464 5458 5460 5461 5454 5448 5445 5440 5448 5430 5419 5402 5403 5407 5415 5452 5404 5416 5429 5412 5396
5443 5443 5444 5445 5447 5449 5451 5454 5458 5462 5464 5461 5455 5459 5455 5460 5464 5468 5469 5465 5461 5458 5458 5458 5448 5445 5446 5455 5449 5450 5443 5454 5433 5420 5425 5432 5431 5395 5398 5395 5443 5448 5422 5417 5435 5455 5405
5437 5437 5439 5441 5443 5444 5446 5448 5450 5453 5455 5453 5447 5446 5450 5447 5460 5460 5458 5455 5448 5438 5442 5434 5433 5433 5440 5439 5435 5424 5442 5454 5428 5420 5414 5417 5409 5408 5361 5382 5419 5445 5434 5422 5409 5423 5401
5435 5435 5436 5436 5437 5438 5440 5441 5443 5444 5447 5447 5442 5441 5445 5436 5435 5437 5438 5441 5441 5431 5425 5427 5425 5430 5428 5421 5419 5417 5438 5429 5418 5415 5393 5390 5382 5387 5372 5345 5392 5409 5403 5394 5406 5413 5384
5432 5432 5433 5434 5434 5436 5437 5438 5439 5442 5444 5443 5438 5437 5439 5432 5425 5423 5423 5435 5433 5429 5429 5415 5416 5412 5402 5405 5408 5400 5379 5387 5380 5398 5383 5388 5377 5367 5346 5320 5392 5393 5395 5399 5380 5366 5361
5429 5429 5429 5429 5429 5431 5433 5435 5435 5436 5439 5441 5437 5432 5432 5429 5416 5411 5408 5409 5410 5412 5411 5406 5411 5410 5416 5405 5384 5370 5374 5333 5338 5369 5371 5379 5383 5378 5380 5381 5364 5355 5358 5348 5350 5350 5339